Regional Weather Roundup
Issued by NWS

Home | Current Version | Previous Version | Text Only | Print | Product List | Glossary On
Versions: 1 2 3 4 5 6 7 8 9 10 11 12 13 14 15 16 17 18 19 20 21 22 23 24 25 26 27 28 29 30 31 32 33 34 35 36 37 38 39 40 41 42 43 44 45 46 47 48 49 50
000
ASUS43 KOAX 291610
RWRNE

WEATHER ROUNDUP FOR NEBRASKA
NATIONAL WEATHER SERVICE OMAHA NE
1100 AM CDT SUN MAR 29 2015

NOTES: SATELLITE DATA IS BEING USED TO AUGMENT CLOUD COVER ABOVE
       12000 FEET.
       "FAIR" INDICATES FEW OR NO CLOUDS BELOW 12,000 FEET WITH NO
       SIGNIFICANT WEATHER AND/OR OBSTRUCTIONS TO VISIBILITY.

  * THESE STATIONS DO NOT REPORT WEATHER SUCH AS RAIN...SNOW OR FOG.

NEZ001>004-019>022-054>056-291700-
NEBRASKA PANHANDLE

CITY           SKY/WX    TMP DP  RH WIND       PRES   REMARKS
SCOTTSBLUFF    SUNNY     53  30  41 NW23G31   30.29R
ALLIANCE       SUNNY     52  26  36 N24G35    30.23R
CHADRON        SUNNY     53  28  38 NW18G29   30.23R
KIMBALL        SUNNY     49  25  38 N24G35    30.27S
SIDNEY         SUNNY     51  27  39 N37G51    30.24R
$$

NEZ057>060-069>072-079>082-291700-
SOUTHWEST NEBRASKA

CITY           SKY/WX    TMP DP  RH WIND       PRES   REMARKS
NORTH PLATTE   SUNNY     54  28  36 NW26G47   30.16R
IMPERIAL         N/A     55  28  35 NW30G40   30.21R
LEXINGTON      SUNNY     56  29  35 NW31G43   30.14R
MCCOOK         SUNNY     60  29  30 NW28G35   30.17R
OGALLALA       SUNNY     54  31  40 N26G41    30.21R
$$

NEZ005>010-023>029-035>040-094-291700-
NORTH CENTRAL NEBRASKA

CITY           SKY/WX    TMP DP  RH WIND       PRES   REMARKS
VALENTINE      SUNNY     50  19  29 NW29G41   30.15R
AINSWORTH      SUNNY     52  30  42 NW29G39   30.11R
BROKEN BOW     SUNNY     55  34  45 NW33G46   30.10R
O`NEILL        CLOUDY    49  36  61 NW33G46   30.06R
ORD            MOSUNNY   54  33  45 NW36G47   30.06R
THEDFORD       SUNNY     52  29  40 NW36G51   30.14R
$$

NEZ041-046>049-061>064-073>077-083>087-291700-
SOUTH CENTRAL NEBRASKA

CITY           SKY/WX    TMP DP  RH WIND       PRES   REMARKS
GRAND ISLAND   SUNNY     58  34  40 NW36G49   30.07R
AURORA         MOSUNNY   58  35  43 NW31G51   30.04R
HASTINGS       MOSUNNY   59  35  40 NW32G44   30.06R
HEBRON         MOSUNNY   60  34  37 NW21G32   30.04R
HOLDREGE       SUNNY     57  30  35 NW33G40   30.10R
KEARNEY *      SUNNY     57  32  38 NW32G40   30.08R
YORK           MOSUNNY   59  37  44 N30G40    30.00R
$$

NEZ011>018-030>034-042>045-291700-
NORTHEAST NEBRASKA

CITY           SKY/WX    TMP DP  RH WIND       PRES   REMARKS
NORFOLK        CLOUDY    50  39  66 NW29G47   29.99R
ALBION         CLOUDY    52  36  54 NW33G41   30.02R
BLAIR          CLOUDY    58  37  44 NW26G36   29.93R
COLUMBUS *     PTSUNNY   55  37  50 NW30G41   30.01R
FREMONT        CLOUDY    58  38  46 NW38      29.97R
TEKAMAH        PTSUNNY   59  38  45 W30G47    29.93R HAZE
WAYNE          CLOUDY    49  38  66 NW29G37   29.98R
$$

NEZ050>053-065>068-078-088>093-291700-
SOUTHEAST NEBRASKA

CITY           SKY/WX    TMP DP  RH WIND       PRES   REMARKS
LINCOLN        MOSUNNY   61  36  39 NW28G41   29.99R
OMAHA EPPLEY   PTSUNNY   58  37  45 NW24G31   29.92S
BEATRICE       PTSUNNY   62  38  41 NW32G38   30.00R
FALLS CITY     PTSUNNY   58  41  53 W13       29.97R
NEBRASKA CITY  MOSUNNY   60  34  37 NW24G32   29.96R
PLATTSMOUTH    MOSUNNY   59  34  38 NW22G29   29.94S
$$

NEZ044-045-051>053-067-291700-
OMAHA AREA

CITY           SKY/WX    TMP DP  RH WIND       PRES   REMARKS
OMAHA EPPLEY   PTSUNNY   58  37  45 NW24G31   29.92S
BLAIR          CLOUDY    58  37  44 NW26G36   29.93R
FREMONT        CLOUDY    58  38  46 NW38      29.97R
MILLARD        PTSUNNY   60  38  44 NW16G25   29.94R
OFFUTT AFB     MOSUNNY   60  37  43 NW22G32   29.93R
PLATTSMOUTH    MOSUNNY   59  34  38 NW22G29   29.94S
WAHOO          CLOUDY    57  36  45 NW32G43   29.96R
$$


USA.gov is the U.S. government's official web portal to all federal, state and local government web resources and services.